{"data":{"norad_id":61923,"intl_designator":"2024-207M","name":"STARLINK-32537","alt_names":[],"object_type":"PAYLOAD","status":"ACTIVE","operator":null,"country":"US","launch_date":"2024-11-11","launch_site_code":"AFETR","launch_vehicle":null,"mission":null,"orbit_class":"UNKNOWN","rcs_meters":null,"size_class":null,"mass_kg":null,"dimensions":null,"purposes":["comms"],"wikipedia_slug":null,"has_3d_model":false,"image_url":null,"decayed_at":null,"tle_current":{"epoch":"2026-05-24T21:49:46.469568Z","epoch_age_seconds":93453,"freshness":"FRESH","line1":"1 61923U 24207M   26144.90956562  .00009937  00000+0  37011-3 0  9997","line2":"2 61923  43.0005 215.2055 0000717 288.5471  71.5302 15.27582874 86332","mean_motion":15.27582874,"eccentricity":7.17e-5,"inclination_deg":43.0005,"raan_deg":215.2055,"arg_perigee_deg":288.5471,"mean_anomaly_deg":71.5302,"bstar":0.00037011,"rev_number":8633,"period_min":94.266571359846,"perigee_km":482.54854383718,"apogee_km":483.53243668928,"semimajor_km":6861.1774902632,"source":"CELESTRAK","updated_at":"2026-05-25T13:38:19.482696Z"}}}